Regional Weather Roundup
Issued by NWS

Home | Current Version | Previous Version | Text Only | Print | Product List | Glossary On
Versions: 1 2 3 4 5 6 7 8 9 10 11 12 13 14 15 16 17 18 19 20 21 22 23 24 25 26 27 28 29 30 31 32 33 34 35 36 37 38 39 40 41 42 43 44 45 46 47 48 49 50
000
ASHW40 PHFO 210812
RWRHI

WEATHER ROUNDUP FOR HAWAII
NATIONAL WEATHER SERVICE HONOLULU HI
1000 PM HST MON MAY 20 2019

THIS IS AN AUTOMATED REPORT THAT HAS NOT BEEN QUALITY CONTROLLED.

NOTE..."FAIR" INDICATES FEW OR NO CLOUDS BELOW 12,000 FEET WITH NO
SIGNIFICANT WEATHER AND/OR OBSTRUCTIONS TO VISIBILITY.

* - THESE SITES REPORT LIMITED FIELDS
# - BUOY DATA PROVIDED BY PACIFIC ISLANDS OCEAN OBSERVING SYSTEM.

HIZ001>004-210900-
KAUAI-NIIHAU-

CITY           SKY/WX    TMP DP  RH WIND       PRES   REMARKS
LIHUE APT      CLOUDY    74  70  87 W7        30.06R
PORT ALLEN*      N/A     73 N/A N/A N7          N/A
POIPU*           N/A     73 N/A N/A N2          N/A
PRINCEVILLE*     N/A     72 N/A N/A SW3         N/A
KOKOLE POINT*  NOT AVBL
MOLOAA DAIRY*    N/A     72  68  88 SW1G10      N/A
WAIMEA HTS*    NOT AVBL
PUU OPAE*      NOT AVBL
PUU LUA*       NOT AVBL
MAKAHA RIDGE*  NOT AVBL
$$

HIZ005>011-210900-
OAHU-

CITY           SKY/WX    TMP DP  RH WIND       PRES   REMARKS
HONOLULU       PTCLDY    79  68  69 N3        30.05R
KALAELOA       PTCLDY    77  68  73 E5        30.06R
KANEOHE MCB    CLEAR     78  70  76 CALM      30.02R
WHEELER FIELD  CLOUDY    73  69  89 NW3       30.06R
BELLOWS*       NOT AVBL
KAHUKU*        NOT AVBL
WHEELER*       NOT AVBL
WAIANAE HARBOR NOT AVBL
DILLINGHAM*      N/A     88  86  94 CALM        N/A  HX 116
KAHUKU TRN*      N/A     72  70  94 CALM        N/A
KAWAILOA*        N/A     70  66  88 E5          N/A
KII*             N/A     73  72  94 SE5         N/A
MAKUA RANGE*     N/A     70  64  83 SE2         N/A
OAHU FOREST NW NOT AVBL
SCHOFIELD BRK*   N/A     66  63  88 W2          N/A
SCHOFIELD S*   NOT AVBL
WAIANAE VLY*   NOT AVBL
KUAOKALA*      NOT AVBL
HONOULIUULI*   NOT AVBL
MOKUOLOE IS*     N/A     79 N/A N/A E2          N/A
PALEHUA*       NOT AVBL
WAIAWA PHB*    NOT AVBL
$$

HIZ012>013-210900-
MOLOKAI-

CITY           SKY/WX    TMP DP  RH WIND       PRES   REMARKS
MOLOKAI AIRPT  CLEAR     73  69  87 CALM      30.07R
KALAUPAPA      NOT AVBL
MAKAPULAPAI*   NOT AVBL
MOLOKAI 1*     NOT AVBL
PUU ALII*      NOT AVBL
$$

HIZ016-210900-
KAHOOLAWE-

CITY           SKY/WX    TMP DP  RH WIND       PRES   REMARKS
KAHOOLAWE*     NOT AVBL
HAKIOAWA*      NOT AVBL
HONOKANAIA*    NOT AVBL
KANELOA*         N/A     73  70  88 E13G22    30.11R
KEALIALALO*    NOT AVBL
LUA MAKIKA*    NOT AVBL
$$

HIZ014>015-210900-
LANAI-

CITY           SKY/WX    TMP DP  RH WIND       PRES   REMARKS
LANAI CITY     FAIR      70  70 100 NE8       30.12S
LANAI 1*       NOT AVBL
$$

HIZ017>028-210900-
MAUI-

CITY           SKY/WX    TMP DP  RH WIND       PRES   REMARKS
KAHULUI        PTCLDY    76  67  73 VRB3      30.04R
KAPALUA-W MAUI NOT AVBL
HANA AIRPORT   CLOUDY    73  72  94 NE7       30.14
HANA*            N/A     77 N/A N/A SE5G10      N/A
HALEAKALA SUMM   N/A     50   7  17 E8          N/A
MAALAEA BAY*   NOT AVBL
HALEAKALA*     NOT AVBL
KAUPO GAP*     NOT AVBL
KULA 1*          N/A     51  48  89 NE3         N/A
$$

HIZ023>026-210900-
BIG ISLAND OF HAWAII COAST AND LOWER SLOPES-

CITY           SKY/WX    TMP DP  RH WIND       PRES   REMARKS
KAILUA KONA    CLEAR     78  70  76 SE9       30.04R
HILO           MOCLDY    76  70  82 SW3       30.07R
HONOKAA*       NOT AVBL
KAWAIHAE MWT*  NOT AVBL
KAWAIHAE*        N/A     81 N/A N/A SW3         N/A
SOUTH POINT*     N/A     72 N/A N/A N1          N/A
UPOLU AIRPORT* NOT AVBL
KAMUELA*       NOT AVBL
HAKALAU*         N/A     51  51  99 S6          N/A
KALOKO-HONOKO* NOT AVBL
PALI 2*          N/A     64  61  88 N7G14       N/A
KEALAKOMO*       N/A     79  70  73 NE8G14      N/A
KAUPULEHU*     NOT AVBL
KAPAPALA*        N/A     67  65  94 NW3         N/A
LOWER KAHUKU*  NOT AVBL
PUHE CS*       NOT AVBL
PUHO CS*       NOT AVBL
PTA KEAMUKU*     N/A     63  59  88 S9          N/A
WAIKOLOA*      NOT AVBL
$$

HIZ027>028-210900-
BIG ISLAND OF HAWAII INTERIOR AND SUMMMITS-

CITY           SKY/WX    TMP DP  RH WIND       PRES   REMARKS
BRADSHAW FIELD NOT AVBL
MK VISITOR CEN   N/A     52  -2  11 E2          N/A
MAUNA KEA*       N/A     41  14  33 SE2         N/A
MAUNA LOA*     NOT AVBL
MAUNA LOA 1*   NOT AVBL
PTA KIPUKA*      N/A     57  57 100 N2          N/A
PTA RANGE 17*    N/A     55  52  88 E3G13       N/A
PTA WEST*        N/A     73  72  94 SE5         N/A
NENE CABIN*    NOT AVBL
AHUMOA*        NOT AVBL
PTA PORTABLE*  NOT AVBL
PUU MALI*        N/A     52  50  93 SW6         N/A
$$

HIC003-210900-
NORTHWEST ISLANDS-

CITY           SKY/WX    TMP DP  RH WIND       PRES   REMARKS
MIDWAY ISLAND  CLOUDY    64  48  55 N9G18     30.14R
MIDWAY NOS*    NOT AVBL
FRENCH FRIGATE NOT AVBL
$$

PHZ110>124-180-210900-
BUOY REPORTS

STATION/POSITION TIME  TEMP    WIND        PRES    WAVE   SWELL
                       AIR SEA DIR/SP/G            HT/PER HT/DIR
                 (UTC) (F)     (DEG/KT/KT) (MB)    (FT/S) (FT/D)
BUOY 51101       0750   77 78  170/ 10/ 12 1017.0R   5/ 8   5/130
BUOY 51100       NOT AVBL
BUOY 51002       0750                      1016.9R   6/ 9
BUOY 51003       NOT AVBL
BUOY 51004       0740      80   80/ 16/ 19 1017.6R
WAIMEA BAY#      0742      75                N/A     3/ 6   2/320
MOKAPU POINT#    0730      78                N/A     5/ 6   2/ 80
LANAI#           0730      81                N/A     4/17   2/190
BARBERS PT#      0800      80                N/A     3/17   2/190
PAUWELA#         0730      77                N/A     5/ 9   2/ 40
HILO#            0746      79                N/A     6/ 8   2/ 60
KANEOHE BAY#     0754      77                N/A     4/ 7
KANEOHE BAY 2#   NOT AVBL
HANALEI#         0736      80                N/A     4/ 6   2/350
KAHULUI HARBOR   0742   76     310/  9/ 10 1017.4R
HONOLULU HARBOR  0742   78 80   CALM  /  2 1017.4R
PEARL HARBOR#    0730      80                N/A     3/ 6   2/170
KILO NALU        NOT AVBL
HILO HARBOR      0742   76 78  220/  1/  2 1017.6R
MOKUOLOE         0736   78 81   70/  4/  6 1017.5R
NAWILIWILI       0742   74 81  280/  4/  5 1017.9R
WHOTS BUOY       NOT AVBL
BUOY 51028       NOT AVBL
$$

......................KEY........................................
  SKY/WX - SKY CONDITIONS/PRESENT WEATHER
  TMP    - TEMPERATURE IN FAHRENHEIT
  DWPT   - DEWPOINT IN FAHRENHEIT
  RH     - RELATIVE HUMIDITY IN PERCENT
  WIND   - DIRECTION AND SPEED /MPH FOR ISLANDS...KTS FOR BUOYS/
  PRES   - MEAN SEA LEVEL PRESSURE IN INCHES OF HG
  VSB    - VISIBILITY IN MILES
  HX     - HEAT INDEX
  WCI    - WIND CHILL INDEX
  VRB    - VARIABLE WIND DIRECTION
  N/A    - NOT AVAILABLE



USA.gov is the U.S. government's official web portal to all federal, state and local government web resources and services.